Overview Statistics Trail Chart Weather Telemetry Raw packets
 

This is the latest recevied weather packets stored in our database for station/object EA3GKP-10. If no packets are shown the sender has not sent any weather packets the latest 10 day(s).

<< 1 2 3 4 5 6 7 >>
Time Temp. Humidity Pressure Rain* Wind** Luminosity Snow
1788545134 26.67° C - - 0 mm 0 m/s - -
1788544829 26.67° C - - 0 mm 0.89 m/s, 191° - -
1788544525 27.22° C - - 0 mm 0.45 m/s, 108° - -
1788544220 26.67° C - - 0 mm 0.89 m/s, 103° - -
1788543912 26.67° C - - 0 mm 0 m/s - -
1788543606 26.67° C - - 0 mm 0.45 m/s, 170° - -
1788543302 26.67° C - - 0 mm 0 m/s - -
1788542994 27.22° C - - 0 mm 0.45 m/s, 96° - -
1788542691 26.67° C - - 0 mm 0 m/s - -
1788542388 27.22° C - - 0 mm 0.89 m/s, 105° - -
1788541783 26.67° C - - 0 mm 0.45 m/s, 207° - -
1788541474 26.67° C - - 0 mm 0.89 m/s, 208° - -
1788541166 26.67° C - - 0 mm 0.89 m/s, 173° - -
1788540861 26.67° C - - 0 mm 1.34 m/s, 218° - -
1788540557 26.67° C - - 0 mm 1.34 m/s, 156° - -
1788540249 26.67° C - - 0 mm 1.34 m/s, 120° - -
1788539943 26.67° C - - 0 mm 1.34 m/s, 121° - -
1788539636 27.22° C - - 0 mm 1.34 m/s, 118° - -
1788539329 26.67° C - - 0 mm 1.79 m/s, 187° - -
1788539023 27.22° C - - 0 mm 0.89 m/s, 155° - -
1788538713 27.78° C - - 0 mm 1.79 m/s, 177° - -
1788538409 27.78° C - - 0 mm 0.45 m/s, 183° - -
1788537800 27.78° C - - 0 mm 0.89 m/s, 229° - -
1788537496 27.22° C - - 0 mm 0.89 m/s, 188° - -
1788537186 27.78° C - - 0 mm 0.45 m/s, 181° - -

* Rain latest hour (hover to see other rain measurements)
** Current wind speed in m/s (hover to see current wind gust speed)